Ontario, OR

7:14 AM MST on January 20, 2018 (GMT -0700)
Ontario Municipal

Weather History for KONO - April, 2013

Change the Weather History Date:

Saturday, April 6, 2013

  Actual Average Record
Temperature  
Mean Temperature 56 °F 48 °F  
Max Temperature 63 °F 62 °F 84 °F (1960)
Min Temperature 49 °F 34 °F 17 °F (1956)
Degree Days  
Heating Degree Days 9 17  
Month to date heating degree days 41 104  
Since 1 July heating degree days 5179 5404  
Cooling Degree Days 0 0  
Month to date cooling degree days 0 0  
Year to date cooling degree days 0 0  
Growing Degree Days 4 (Base 50)    
Moisture  
Dew Point 41 °F    
Average Humidity 57    
Maximum Humidity 71    
Minimum Humidity 42    
Precipitation  
Precipitation 0.08 in 0.03 in 0.55 in (1963)
Month to date precipitation 0.08 0.16  
Year to date precipitation 1.28 3.15  
Sea Level Pressure  
Sea Level Pressure 29.94 in    
Wind  
Wind Speed 6 mph (SSW)    
Max Wind Speed 30 mph    
Max Gust Speed 51 mph    
Visibility 10 miles    
Events Rain    
T = Trace of Precipitation, MM = Missing Value Source: NWS Daily Summary

Daily Weather History Graph

Daily Weather History Graph

Search for Another Location

Airport or City:

Trip Planner

Search our weather history database for the weather conditions in past years. The results will help you decide how hot, cold, wet, or windy it might be!

Date:

Astronomy

Apr. 06, 2013 Rise Set
Actual Time 7:19 AM MDT 8:21 PM MDT
Civil Twilight 6:50 AM MDT 8:51 PM MDT
Nautical Twilight 6:15 AM MDT 9:26 PM MDT
Astronomical Twilight 5:38 AM MDT 10:03 PM MDT
Moon 5:13 AM MDT (4/6) 4:48 PM MDT (4/6)
Length of Visible Light 14h 00m
Length of Day
13h 01m
Waning Crescent, 14% of the Moon is Illuminated
Apr 6
Waning Crescent
Apr 10
New
Apr 18
First Quarter
Apr 25
Full
May 2
Last Quarter

Hourly Weather History & Observations

Time (MDT) Temp. Dew Point Humidity Pressure Visibility Wind Dir Wind Speed Gust Speed Precip Events Conditions
12:53 AM 55.9 °F 39.0 °F 53% 29.94 in 10.0 mi West 12.7 mph - 0.00 in Rain Light Rain
1:53 AM 55.0 °F 41.0 °F 59% 29.95 in 10.0 mi SW 4.6 mph - 0.00 in Rain Light Rain
2:53 AM 53.1 °F 43.0 °F 69% 29.94 in 10.0 mi Calm Calm - 0.01 in   Overcast
3:53 AM 51.1 °F 45.0 °F 80% 29.93 in 10.0 mi Calm Calm - 0.00 in Rain Light Rain
4:53 AM 51.1 °F 43.0 °F 74% 29.94 in 10.0 mi Calm Calm - 0.00 in   Overcast
5:53 AM 52.0 °F 39.9 °F 63% 29.94 in 10.0 mi Calm Calm - N/A   Mostly Cloudy
6:53 AM 48.9 °F 39.9 °F 71% 29.94 in 10.0 mi ESE 8.1 mph - N/A   Clear
7:53 AM 50.0 °F 39.0 °F 66% 29.96 in 10.0 mi Calm Calm - N/A   Partly Cloudy
8:53 AM 51.1 °F 42.1 °F 71% 29.97 in 10.0 mi Calm Calm - N/A   Clear
9:53 AM 54.0 °F 39.9 °F 59% 29.98 in 10.0 mi Variable 3.5 mph - N/A   Mostly Cloudy
10:53 AM 55.9 °F 39.0 °F 53% 29.98 in 10.0 mi SSW 4.6 mph - N/A   Overcast
11:53 AM 57.0 °F 39.0 °F 51% 29.98 in 10.0 mi SSW 12.7 mph 20.7 mph N/A   Overcast
12:32 PM 50.0 °F 42.8 °F 76% 30.00 in 6.0 mi WNW 15.0 mph - 0.04 in Rain Light Rain
12:53 PM 51.1 °F 43.0 °F 74% 29.99 in 10.0 mi West 4.6 mph - 0.04 in Rain Light Rain
1:18 PM 55.4 °F 42.8 °F 63% 29.98 in 2.5 mi WSW 5.8 mph - 0.00 in   Haze
1:27 PM 55.4 °F 42.8 °F 63% 29.98 in 10.0 mi WSW 8.1 mph - 0.00 in   Clear
1:53 PM 57.9 °F 41.0 °F 53% 29.98 in 10.0 mi SW 12.7 mph - 0.00 in   Clear
2:53 PM 61.0 °F 37.0 °F 41% 29.96 in 10.0 mi SW 11.5 mph - N/A   Overcast
3:53 PM 60.1 °F 39.0 °F 46% 29.94 in 10.0 mi SE 13.8 mph 24.2 mph 0.01 in   Clear
4:53 PM 61.0 °F 37.0 °F 41% 29.93 in 10.0 mi Variable 4.6 mph - N/A   Overcast
5:53 PM 61.0 °F 39.0 °F 44% 29.91 in 10.0 mi SSE 12.7 mph - N/A   Clear
6:53 PM 60.1 °F 41.0 °F 49% 29.89 in 10.0 mi SE 11.5 mph - N/A   Partly Cloudy
7:53 PM 55.9 °F 41.0 °F 57% 29.89 in 10.0 mi ESE 9.2 mph - N/A   Mostly Cloudy
8:53 PM 54.0 °F 41.0 °F 62% 29.88 in 10.0 mi SSE 4.6 mph - N/A   Clear
9:53 PM 53.1 °F 42.1 °F 66% 29.89 in 10.0 mi SSE 3.5 mph - N/A   Mostly Cloudy
10:53 PM 52.0 °F 44.1 °F 74% 29.89 in 10.0 mi Calm Calm - 0.00 in Rain Light Rain
11:53 PM 50.0 °F 44.1 °F 80% 29.91 in 10.0 mi West 10.4 mph - 0.00 in   Overcast